Content
SEND FEEDBACK

Daily
Averages
Monthly
Summary
United States of America

SHICKSHINNY, PENNSYLVANIA


Home > North America > United States > Pennsylvania
Elevation: 244 meters     Latitude: 41 12N     Longitude: 076 08W

WEATHER
 
SELECT A DAY
Number of Records: 215,586;   Date Range: 1/1/95 - 7/27/14
 
SHARE

PRINT THIS DATA

[ ← Previous Day ]
WEATHER ALMANAC - 3 JANUARY, 2013
[ Next Day → ]
[ °F ]   °C
Weather ElementAverageHighLow
Temperature-4.8 °C-2.2 °C (8:54 pm)-9.4 °C (6:54 am)
Dewpoint-10.7 °C-8.3 °C (10:54 pm)-12.2 °C (5:54 am)
Humidity64.9 %80 % (6:54 am)53 % (2:54 pm)
Barometer1020 hPa1022 hPa (12:54 am)1017.9 hPa (3:54 pm)
Wind Speed9.5 km/h20.4 km/h (2:54 pm)
Wind Gust27.8 km/h (2:54 pm)
Weather ElementAverage
Visibility15.9 km
Wind DirectionSSW (187.4 °)

Weather ElementTotal
Precipitation0.25 mm
Heating Degree Days24.2 (Base 18.3)
Averaged from 27 records on 3 January, 2013
WEATHER CONDITIONS BREAKOUT
WIND DIRECTION BREAKOUT
WEATHER BY HOUR - 3 JANUARY, 2013
[ °F ]   °C
Local TimeTemperatureDewpointHumidityBarometerVisibilityWind DirectionWind SpeedGust SpeedPrecipitationEventsConditions
12:41 AM-5 °C-10 °C68 %1020.7 hPa16.1 kmCalmOvercast
12:54 AM-5 °C-10 °C68 %1022 hPa16.1 kmCalmOvercast
1:54 AM-5.6 °C-9.4 °C75 %1021.7 hPa16.1 kmCalmOvercast
2:54 AM-5.6 °C-11.1 °C66 %1022 hPa16.1 kmNNW (330°)7.4 km/hOvercast
3:54 AM-6.7 °C-11.1 °C71 %1021.7 hPa16.1 kmSSW (210°)5.6 km/hClear
4:54 AM-7.8 °C-11.7 °C74 %1021.3 hPa16.1 kmCalmClear
5:54 AM-8.3 °C-12.2 °C74 %1021.7 hPa16.1 kmSW (230°)5.6 km/hClear
6:54 AM-9.4 °C-12.2 °C80 %1021.7 hPa16.1 kmSSW (200°)5.6 km/hScattered Clouds
7:54 AM-9.4 °C-12.2 °C80 %1021.7 hPa14.5 kmSouth (180°)5.6 km/hClear
8:54 AM-7.8 °C-11.7 °C74 %1021.7 hPa14.5 kmCalmScattered Clouds
9:54 AM-6.7 °C-11.7 °C68 %1021.7 hPa16.1 kmSW (230°)11.1 km/hClear
10:54 AM-5.6 °C-11.1 °C66 %1021.7 hPa16.1 kmSW (220°)11.1 km/h0.25 mmScattered Clouds
11:15 AM-5 °C-11 °C63 %1020 hPa16.1 kmSW (230°)16.7 km/hMostly Cloudy
11:28 AM-4 °C-11 °C59 %1019.6 hPa16.1 kmSW (230°)14.8 km/hScattered Clouds
11:54 AM-4.4 °C-10.6 °C62 %1020.3 hPa16.1 kmSSW (210°)11.1 km/hClear
12:54 PM-3.9 °C-11.1 °C58 %1019 hPa16.1 kmSW (230°)16.7 km/hClear
1:54 PM-3.9 °C-11.7 °C55 %1018.6 hPa16.1 kmSW (220°)14.8 km/hClear
2:54 PM-2.8 °C-11.1 °C53 %1018.3 hPa16.1 kmSSW (210°)20.4 km/h27.8 km/hPartly Cloudy
3:54 PM-3.3 °C-11.7 °C53 %1017.9 hPa16.1 kmSW (230°)14.8 km/hScattered Clouds
4:54 PM-3.3 °C-11.1 °C55 %1018.3 hPa16.1 kmSW (230°)13 km/hOvercast
5:54 PM-2.8 °C-10.6 °C56 %1018.3 hPa16.1 kmSSW (210°)5.6 km/hOvercast
6:54 PM-2.8 °C-9.4 °C61 %1018.6 hPa16.1 kmWSW (250°)11.1 km/hOvercast
7:54 PM-2.8 °C-9.4 °C61 %1018.6 hPa16.1 kmSW (230°)13 km/hOvercast
8:54 PM-2.2 °C-8.9 °C61 %1018.3 hPa16.1 kmWSW (240°)11.1 km/hOvercast
9:54 PM-2.2 °C-8.9 °C61 %1017.9 hPa16.1 kmWSW (250°)14.8 km/hOvercast
10:54 PM-2.2 °C-8.3 °C63 %1017.9 hPa16.1 kmWest (260°)14.8 km/hMostly Cloudy
11:54 PM-2.8 °C-8.3 °C66 %1017.9 hPa16.1 kmSW (230°)9.3 km/hOvercast
Hourly data recorded from KAVP, located 0 kilometers away from Shickshinny, Pennsylvania







STORIES FROM OUR PARTNERS